Find Starlink 5214

NORAD ID: 54762 Int'l Des: 2022-175 Owner: SPXS Country: US Constellation: starlink operational
LEOCIRCULAR

当前视图

正在加载3D地球...

About Starlink 5214

Starlink 5214 (NORAD 54762) is a starlink constellation satellite (v1.5) launched Dec 17, 2022 by SPXS of US. It operates in LEO, CIRCULAR orbit with a mass of 305.00 kg.

即将过境

Passes for default location (London). Set your location on the main map for personalized predictions.

高度历史

Loading altitude history...

两行轨道根数

1 54762U 22175E 26265.61140691 -.00006136 00000-0 -18629-3 0 9997
2 54762 53.1577 224.9888 0002367 85.6050 274.5221 15.31665420209857
Epoch: Sep 22, 2026 • Age: 15 hours

当前状态

高度 475.0 km
远地点 / 近地点 N/A
速度 7.64 km/s
星下点 49.06°N, 97.77°W
发射日期 Dec 17, 2022
运行时间 3.7 years
类型 internet

技术详情

分类 Payload
质量 305.00 kg
干质量 290.00 kg
长度 0.20 m
跨度 9.00 m
形状 ? Box + pan
制造商 SPXS
平台类型 Starlink
阶段状态 In Orbit
所有者/国家 SPXS/US

Most Searched